Time,TemperatureF,DewpointF,PressureIn,WindDirection,WindDirectionDegrees,WindSpeedMPH,WindSpeedGustMPH,Humidity,HourlyPrecipIn,Conditions,Clouds,dailyrainin,SoftwareType,DateUTC
2013-01-18 00:12:00,-999.0,-99.9,-100.00,NNE,30,1.0,-999.0,-999,-99.99,,,-99.99,,2013-01-18 06:12:00,
2013-01-18 00:23:00,-999.0,-99.9,-100.00,NNE,30,1.0,-999.0,-999,-99.99,,,-99.99,,2013-01-18 06:23:00,
2013-01-18 00:33:00,-999.0,-99.9,-100.00,NNE,30,1.0,-999.0,-999,-99.99,,,-99.99,,2013-01-18 06:33:00,
2013-01-18 00:43:00,-999.0,-99.9,-100.00,NNE,30,1.0,-999.0,-999,-99.99,,,-99.99,,2013-01-18 06:43:00,
2013-01-18 01:12:00,-999.0,-99.9,-100.00,NW,312,2.0,-999.0,-999,-99.99,,,-99.99,,2013-01-18 07:12:00,
2013-01-18 01:22:00,-999.0,-99.9,-100.00,NW,312,2.0,-999.0,-999,-99.99,,,-99.99,,2013-01-18 07:22:00,
2013-01-18 01:33:00,-999.0,-99.9,-100.00,NW,312,2.0,-999.0,-999,-99.99,,,-99.99,,2013-01-18 07:33:00,
2013-01-18 01:43:00,-999.0,-99.9,-100.00,NW,312,2.0,-999.0,-999,-99.99,,,-99.99,,2013-01-18 07:43:00,
2013-01-18 02:12:00,-999.0,-99.9,-100.00,SW,228,0.0,-999.0,-999,-99.99,,,-99.99,,2013-01-18 08:12:00,
2013-01-18 02:22:00,-999.0,-99.9,-100.00,SW,228,0.0,-999.0,-999,-99.99,,,-99.99,,2013-01-18 08:22:00,
2013-01-18 02:33:00,-999.0,-99.9,-100.00,SW,228,0.0,-999.0,-999,-99.99,,,-99.99,,2013-01-18 08:33:00,
2013-01-18 02:43:00,-999.0,-99.9,-100.00,SW,228,0.0,-999.0,-999,-99.99,,,-99.99,,2013-01-18 08:43:00,
2013-01-18 03:12:00,-999.0,-99.9,-100.00,WSW,248,1.0,-999.0,-999,-99.99,,,-99.99,,2013-01-18 09:12:00,
2013-01-18 03:22:00,-999.0,-99.9,-100.00,WSW,248,1.0,-999.0,-999,-99.99,,,-99.99,,2013-01-18 09:22:00,
2013-01-18 03:33:00,-999.0,-99.9,-100.00,WSW,248,1.0,-999.0,-999,-99.99,,,-99.99,,2013-01-18 09:33:00,
2013-01-18 03:43:00,-999.0,-99.9,-100.00,WSW,248,1.0,-999.0,-999,-99.99,,,-99.99,,2013-01-18 09:43:00,
2013-01-18 04:12:00,-999.0,-99.9,-100.00,NNW,335,1.0,-999.0,-999,-99.99,,,-99.99,,2013-01-18 10:12:00,
2013-01-18 04:22:00,-999.0,-99.9,-100.00,NNW,335,1.0,-999.0,-999,-99.99,,,-99.99,,2013-01-18 10:22:00,
2013-01-18 04:33:00,-999.0,-99.9,-100.00,NNW,335,1.0,-999.0,-999,-99.99,,,-99.99,,2013-01-18 10:33:00,
2013-01-18 04:43:00,-999.0,-99.9,-100.00,NNW,335,1.0,-999.0,-999,-99.99,,,-99.99,,2013-01-18 10:43:00,
2013-01-18 05:12:00,-999.0,-99.9,-100.00,NNW,328,2.0,-999.0,-999,-99.99,,,-99.99,,2013-01-18 11:12:00,
2013-01-18 05:23:00,-999.0,-99.9,-100.00,NNW,328,2.0,-999.0,-999,-99.99,,,-99.99,,2013-01-18 11:23:00,
2013-01-18 05:33:00,-999.0,-99.9,-100.00,NNW,328,2.0,-999.0,-999,-99.99,,,-99.99,,2013-01-18 11:33:00,
2013-01-18 05:43:00,-999.0,-99.9,-100.00,NNW,328,2.0,-999.0,-999,-99.99,,,-99.99,,2013-01-18 11:43:00,
2013-01-18 06:12:00,-999.0,-99.9,-100.00,SW,232,1.0,-999.0,-999,-99.99,,,-99.99,,2013-01-18 12:12:00,
2013-01-18 06:23:00,-999.0,-99.9,-100.00,SW,232,1.0,-999.0,-999,-99.99,,,-99.99,,2013-01-18 12:23:00,
2013-01-18 06:33:00,-999.0,-99.9,-100.00,SW,232,1.0,-999.0,-999,-99.99,,,-99.99,,2013-01-18 12:33:00,
2013-01-18 06:43:00,-999.0,-99.9,-100.00,SW,232,1.0,-999.0,-999,-99.99,,,-99.99,,2013-01-18 12:43:00,
2013-01-18 07:12:00,-999.0,-99.9,-100.00,West,276,1.0,-999.0,-999,-99.99,,,-99.99,,2013-01-18 13:12:00,
2013-01-18 07:23:00,-999.0,-99.9,-100.00,West,276,1.0,-999.0,-999,-99.99,,,-99.99,,2013-01-18 13:23:00,
2013-01-18 07:34:00,-999.0,-99.9,-100.00,West,276,1.0,-999.0,-999,-99.99,,,-99.99,,2013-01-18 13:34:00,
2013-01-18 07:43:00,-999.0,-99.9,-100.00,West,276,1.0,-999.0,-999,-99.99,,,-99.99,,2013-01-18 13:43:00,
2013-01-18 08:13:00,-999.0,-99.9,-100.00,SSW,199,1.0,-999.0,-999,-99.99,,,-99.99,,2013-01-18 14:13:00,
2013-01-18 08:23:00,-999.0,-99.9,-100.00,SSW,199,1.0,-999.0,-999,-99.99,,,-99.99,,2013-01-18 14:23:00,
2013-01-18 08:34:00,-999.0,-99.9,-100.00,SSW,199,1.0,-999.0,-999,-99.99,,,-99.99,,2013-01-18 14:34:00,
2013-01-18 08:43:00,-999.0,-99.9,-100.00,SSW,199,1.0,-999.0,-999,-99.99,,,-99.99,,2013-01-18 14:43:00,
2013-01-18 09:13:00,-999.0,-99.9,-100.00,ESE,109,0.0,-999.0,-999,-99.99,,,-99.99,,2013-01-18 15:13:00,
2013-01-18 09:23:00,-999.0,-99.9,-100.00,ESE,109,0.0,-999.0,-999,-99.99,,,-99.99,,2013-01-18 15:23:00,
2013-01-18 09:34:00,-999.0,-99.9,-100.00,ESE,109,0.0,-999.0,-999,-99.99,,,-99.99,,2013-01-18 15:34:00,
2013-01-18 09:44:00,-999.0,-99.9,-100.00,ESE,109,0.0,-999.0,-999,-99.99,,,-99.99,,2013-01-18 15:44:00,
2013-01-18 10:13:00,-999.0,-99.9,-100.00,ENE,65,5.0,-999.0,-999,-99.99,,,-99.99,,2013-01-18 16:13:00,
2013-01-18 10:23:00,-999.0,-99.9,-100.00,ENE,65,5.0,-999.0,-999,-99.99,,,-99.99,,2013-01-18 16:23:00,
2013-01-18 10:34:00,-999.0,-99.9,-100.00,ENE,65,5.0,-999.0,-999,-99.99,,,-99.99,,2013-01-18 16:34:00,
2013-01-18 10:43:00,-999.0,-99.9,-100.00,ENE,65,5.0,-999.0,-999,-99.99,,,-99.99,,2013-01-18 16:43:00,
2013-01-18 11:13:00,-999.0,-99.9,-100.00,East,79,11.0,-999.0,-999,-99.99,,,-99.99,,2013-01-18 17:13:00,
2013-01-18 11:23:00,-999.0,-99.9,-100.00,East,79,11.0,-999.0,-999,-99.99,,,-99.99,,2013-01-18 17:23:00,
2013-01-18 11:34:00,-999.0,-99.9,-100.00,East,79,11.0,-999.0,-999,-99.99,,,-99.99,,2013-01-18 17:34:00,
2013-01-18 11:43:00,-999.0,-99.9,-100.00,East,79,11.0,-999.0,-999,-99.99,,,-99.99,,2013-01-18 17:43:00,
2013-01-18 12:13:00,-999.0,-99.9,-100.00,ENE,76,9.0,-999.0,-999,-99.99,,,-99.99,,2013-01-18 18:13:00,
2013-01-18 12:24:00,-999.0,-99.9,-100.00,ENE,76,9.0,-999.0,-999,-99.99,,,-99.99,,2013-01-18 18:24:00,
2013-01-18 12:34:00,-999.0,-99.9,-100.00,ENE,76,9.0,-999.0,-999,-99.99,,,-99.99,,2013-01-18 18:34:00,
2013-01-18 12:44:00,-999.0,-99.9,-100.00,ENE,76,9.0,-999.0,-999,-99.99,,,-99.99,,2013-01-18 18:44:00,
2013-01-18 13:13:00,-999.0,-99.9,-100.00,East,82,8.0,-999.0,-999,-99.99,,,-99.99,,2013-01-18 19:13:00,
2013-01-18 13:23:00,-999.0,-99.9,-100.00,East,82,8.0,-999.0,-999,-99.99,,,-99.99,,2013-01-18 19:23:00,
2013-01-18 13:33:00,-999.0,-99.9,-100.00,East,82,8.0,-999.0,-999,-99.99,,,-99.99,,2013-01-18 19:33:00,
2013-01-18 13:43:00,-999.0,-99.9,-100.00,East,82,8.0,-999.0,-999,-99.99,,,-99.99,,2013-01-18 19:43:00,
2013-01-18 14:13:00,-999.0,-99.9,-100.00,ESE,104,9.0,-999.0,-999,-99.99,,,-99.99,,2013-01-18 20:13:00,
2013-01-18 14:23:00,-999.0,-99.9,-100.00,ESE,104,9.0,-999.0,-999,-99.99,,,-99.99,,2013-01-18 20:23:00,
2013-01-18 14:34:00,-999.0,-99.9,-100.00,ESE,104,9.0,-999.0,-999,-99.99,,,-99.99,,2013-01-18 20:34:00,
2013-01-18 14:43:00,-999.0,-99.9,-100.00,ESE,104,9.0,-999.0,-999,-99.99,,,-99.99,,2013-01-18 20:43:00,
2013-01-18 15:13:00,-999.0,-99.9,-100.00,NW,325,1.0,-999.0,-999,-99.99,,,-99.99,,2013-01-18 21:13:00,
2013-01-18 15:23:00,-999.0,-99.9,-100.00,NW,325,1.0,-999.0,-999,-99.99,,,-99.99,,2013-01-18 21:23:00,
2013-01-18 15:33:00,-999.0,-99.9,-100.00,NW,325,1.0,-999.0,-999,-99.99,,,-99.99,,2013-01-18 21:33:00,
2013-01-18 15:43:00,-999.0,-99.9,-100.00,NW,325,1.0,-999.0,-999,-99.99,,,-99.99,,2013-01-18 21:43:00,
2013-01-18 16:12:00,-999.0,-99.9,-100.00,SE,127,5.0,-999.0,-999,-99.99,,,-99.99,,2013-01-18 22:12:00,
2013-01-18 16:23:00,-999.0,-99.9,-100.00,SE,127,5.0,-999.0,-999,-99.99,,,-99.99,,2013-01-18 22:23:00,
2013-01-18 16:33:00,-999.0,-99.9,-100.00,SE,127,5.0,-999.0,-999,-99.99,,,-99.99,,2013-01-18 22:33:00,
2013-01-18 16:43:00,-999.0,-99.9,-100.00,SE,127,5.0,-999.0,-999,-99.99,,,-99.99,,2013-01-18 22:43:00,
2013-01-18 17:12:00,-999.0,-99.9,-100.00,WNW,297,6.0,-999.0,-999,-99.99,,,-99.99,,2013-01-18 23:12:00,
2013-01-18 17:23:00,-999.0,-99.9,-100.00,WNW,297,6.0,-999.0,-999,-99.99,,,-99.99,,2013-01-18 23:23:00,
2013-01-18 17:33:00,-999.0,-99.9,-100.00,WNW,297,6.0,-999.0,-999,-99.99,,,-99.99,,2013-01-18 23:33:00,
2013-01-18 17:43:00,-999.0,-99.9,-100.00,WNW,297,6.0,-999.0,-999,-99.99,,,-99.99,,2013-01-18 23:43:00,
2013-01-18 18:13:00,-999.0,-99.9,-100.00,NNW,346,0.0,-999.0,-999,-99.99,,,-99.99,,2013-01-19 00:13:00,
2013-01-18 18:23:00,-999.0,-99.9,-100.00,NNW,346,0.0,-999.0,-999,-99.99,,,-99.99,,2013-01-19 00:23:00,
2013-01-18 18:33:00,-999.0,-99.9,-100.00,NNW,346,0.0,-999.0,-999,-99.99,,,-99.99,,2013-01-19 00:33:00,
2013-01-18 18:43:00,-999.0,-99.9,-100.00,NNW,346,0.0,-999.0,-999,-99.99,,,-99.99,,2013-01-19 00:43:00,
2013-01-18 19:13:00,-999.0,-99.9,-100.00,South,191,0.0,-999.0,-999,-99.99,,,-99.99,,2013-01-19 01:13:00,
2013-01-18 19:23:00,-999.0,-99.9,-100.00,South,191,0.0,-999.0,-999,-99.99,,,-99.99,,2013-01-19 01:23:00,
2013-01-18 19:33:00,-999.0,-99.9,-100.00,South,191,0.0,-999.0,-999,-99.99,,,-99.99,,2013-01-19 01:33:00,
2013-01-18 19:43:00,-999.0,-99.9,-100.00,South,191,0.0,-999.0,-999,-99.99,,,-99.99,,2013-01-19 01:43:00,
2013-01-18 20:12:00,-999.0,-99.9,-100.00,NNW,328,2.0,-999.0,-999,-99.99,,,-99.99,,2013-01-19 02:12:00,
2013-01-18 20:23:00,-999.0,-99.9,-100.00,NNW,328,2.0,-999.0,-999,-99.99,,,-99.99,,2013-01-19 02:23:00,
2013-01-18 20:33:00,-999.0,-99.9,-100.00,NNW,328,2.0,-999.0,-999,-99.99,,,-99.99,,2013-01-19 02:33:00,
2013-01-18 20:43:00,-999.0,-99.9,-100.00,NNW,328,2.0,-999.0,-999,-99.99,,,-99.99,,2013-01-19 02:43:00,
2013-01-18 21:12:00,-999.0,-99.9,-100.00,NE,49,0.0,-999.0,-999,-99.99,,,-99.99,,2013-01-19 03:12:00,
2013-01-18 21:23:00,-999.0,-99.9,-100.00,NE,49,0.0,-999.0,-999,-99.99,,,-99.99,,2013-01-19 03:23:00,
2013-01-18 21:33:00,-999.0,-99.9,-100.00,NE,49,0.0,-999.0,-999,-99.99,,,-99.99,,2013-01-19 03:33:00,
2013-01-18 21:44:00,-999.0,-99.9,-100.00,NE,49,0.0,-999.0,-999,-99.99,,,-99.99,,2013-01-19 03:44:00,
2013-01-18 22:12:00,-999.0,-99.9,-100.00,West,270,1.0,-999.0,-999,-99.99,,,-99.99,,2013-01-19 04:12:00,
2013-01-18 22:22:00,-999.0,-99.9,-100.00,West,270,1.0,-999.0,-999,-99.99,,,-99.99,,2013-01-19 04:22:00,
2013-01-18 22:33:00,-999.0,-99.9,-100.00,West,270,1.0,-999.0,-999,-99.99,,,-99.99,,2013-01-19 04:33:00,
2013-01-18 22:43:00,-999.0,-99.9,-100.00,West,270,1.0,-999.0,-999,-99.99,,,-99.99,,2013-01-19 04:43:00,
2013-01-18 23:13:00,-999.0,-99.9,-100.00,West,270,1.0,-999.0,-999,-99.99,,,-99.99,,2013-01-19 05:13:00,
2013-01-18 23:23:00,-999.0,-99.9,-100.00,West,270,1.0,-999.0,-999,-99.99,,,-99.99,,2013-01-19 05:23:00,
2013-01-18 23:33:00,-999.0,-99.9,-100.00,West,270,1.0,-999.0,-999,-99.99,,,-99.99,,2013-01-19 05:33:00,
2013-01-18 23:43:00,-999.0,-99.9,-100.00,West,270,1.0,-999.0,-999,-99.99,,,-99.99,,2013-01-19 05:43:00,